Christchurch Aero AWS, New Zealand

11:10 AM NZDT on December 07, 2016 (GMT +1300)
Christchurch International

Weather History for NZCH - March, 2013

Change the Weather History Date:

Tuesday, March 12, 2013

  Actual Average Record
Temperature  
Mean Temperature 58 °F -  
Max Temperature 62 °F 66 °F 82 °F (2007)
Min Temperature 55 °F 49 °F 33 °F (2016)
Degree Days  
Heating Degree Days 6    
Growing Degree Days 8 (Base 50)    
Moisture  
Dew Point 50 °F    
Average Humidity 74    
Maximum Humidity 88    
Minimum Humidity 63    
Precipitation  
Precipitation 0.00 in - - ()
Sea Level Pressure  
Sea Level Pressure 30.18 in    
Wind  
Wind Speed 6 mph ()    
Max Wind Speed 14 mph    
Max Gust Speed -    
Visibility 6.2 miles    
Events      
Averages and records for this station are not official NWS values.
T = Trace of Precipitation, MM = Missing Value Source: Averaged Metar Reports

Daily Weather History Graph

Daily Weather History Graph

Search for Another Location

Airport or City:

Trip Planner

Search our weather history database for the weather conditions in past years. The results will help you decide how hot, cold, wet, or windy it might be!

Date:

Astronomy

Mar. 12, 2013 Rise Set
Actual Time 7:22 AM NZDT 7:56 PM NZDT
Civil Twilight 6:53 AM NZDT 8:25 PM NZDT
Nautical Twilight 6:19 AM NZDT 8:59 PM NZDT
Astronomical Twilight 5:43 AM NZDT 9:34 PM NZDT
Moon 7:31 AM NZDT (3/12) 7:42 PM NZDT (3/12)
Length of Visible Light 13h 31m
Length of Day
12h 34m
New Moon, 0% of the Moon is Illuminated
Mar 12
New Moon
Mar 20
First Quarter
Mar 27
Full
Apr 3
Last Quarter
Apr 10
New

Hourly Weather History & Observations

Time (NZDT) Temp. Dew Point Humidity Pressure Visibility Wind Dir Wind Speed Gust Speed Precip Events Conditions
12:00 AM 55.4 °F 48.2 °F 77% 30.30 in 6.2 mi WSW 4.6 mph - N/A   Mostly Cloudy
1:00 AM 55.4 °F 48.2 °F 77% 30.30 in 6.2 mi SW 4.6 mph - N/A   Mostly Cloudy
2:00 AM 55.4 °F 48.2 °F 77% 30.27 in 6.2 mi WNW 1.2 mph - N/A   Mostly Cloudy
3:00 AM 55.4 °F 48.2 °F 77% 30.27 in 6.2 mi West 1.2 mph - N/A   Mostly Cloudy
4:00 AM 55.4 °F 50.0 °F 82% 30.27 in 6.2 mi NW 3.5 mph - N/A   Mostly Cloudy
5:00 AM 55.4 °F 50.0 °F 82% 30.24 in 6.2 mi North 2.3 mph - N/A   Mostly Cloudy
6:00 AM 55.4 °F 51.8 °F 88% 30.24 in 6.2 mi NE 3.5 mph - N/A   Mostly Cloudy
7:00 AM 55.4 °F 51.8 °F 88% 30.21 in 6.2 mi NE 4.6 mph - N/A   Mostly Cloudy
8:00 AM 55.4 °F 50.0 °F 82% 30.21 in 6.2 mi ENE 9.2 mph - N/A   Mostly Cloudy
9:00 AM 57.2 °F 50.0 °F 77% 30.21 in 6.2 mi ENE 9.2 mph - N/A   Overcast
10:00 AM 57.2 °F 50.0 °F 77% 30.21 in 6.2 mi NE 8.1 mph - N/A   Overcast
11:00 AM 59.0 °F 51.8 °F 77% 30.21 in 6.2 mi ENE 10.4 mph - N/A   Overcast
12:00 PM 60.8 °F 50.0 °F 68% 30.18 in 6.2 mi ENE 11.5 mph - N/A   Overcast
1:00 PM 60.8 °F 50.0 °F 68% 30.18 in 6.2 mi ENE 13.8 mph - N/A   Overcast
2:00 PM 62.6 °F 50.0 °F 63% 30.15 in 6.2 mi NE 13.8 mph - N/A   Mostly Cloudy
3:00 PM 62.6 °F 50.0 °F 63% 30.15 in 6.2 mi ENE 13.8 mph - N/A   Mostly Cloudy
4:00 PM 62.6 °F 51.8 °F 68% 30.12 in 6.2 mi East 13.8 mph - N/A   Mostly Cloudy
5:00 PM 60.8 °F 50.0 °F 68% 30.12 in 6.2 mi ENE 13.8 mph - N/A   Mostly Cloudy
6:00 PM 60.8 °F 50.0 °F 68% 30.09 in 6.2 mi ENE 13.8 mph - N/A   Mostly Cloudy
7:00 PM 59.0 °F 50.0 °F 72% 30.09 in 6.2 mi ENE 13.8 mph - N/A   Mostly Cloudy
8:00 PM 59.0 °F 50.0 °F 72% 30.09 in 6.2 mi ENE 11.5 mph - N/A   Mostly Cloudy
9:00 PM 59.0 °F 50.0 °F 72% 30.09 in 6.2 mi ENE 11.5 mph - N/A   Mostly Cloudy
10:00 PM 59.0 °F 50.0 °F 72% 30.09 in 6.2 mi ENE 10.4 mph - N/A   Mostly Cloudy
11:00 PM 59.0 °F 50.0 °F 72% 30.09 in 6.2 mi ENE 9.2 mph - N/A   Mostly Cloudy